{"data":{"norad_id":81427,"epoch":"2026-05-23T15:06:28.543392Z","epoch_age_seconds":193482,"freshness":"STALE","line1":"1 81427U          26143.62949703  .00000387  00000+0  24868-3 0  9996","line2":"2 81427  98.7329  25.4549 0083319 302.9934  56.3247 14.07202907574538","mean_motion":14.07202907,"eccentricity":0.0083319,"inclination_deg":98.7329,"raan_deg":25.4549,"arg_perigee_deg":302.9934,"mean_anomaly_deg":56.3247,"bstar":0.00024868,"rev_number":57453,"period_min":102.33065841727,"perigee_km":808.57710717255,"apogee_km":929.34126862849,"semimajor_km":7247.0961879005,"source":"CELESTRAK","updated_at":"2026-05-25T13:38:09.452363Z"}}